Starlink 31706

operational
NORAD ID: 59437 Int'l Des: 2024-065 Owner: SPXS Country: US Constellation: starlink
LEOCIRCULAR

About Starlink 31706

Description loading...

Live Position

Loading 3D Globe...

Upcoming Passes

Altitude History

Altitude vs Time

uPlot chart will show altitude changes over time

Two-Line Element Set

1 59437U 24065S 25351.26672403 .00008571 00000-0 30102-3 0 9991
2 59437 53.1617 306.4122 0001408 83.7493 276.3669 15.30215648 96287
Epoch: Dec 17, 2025 • Age: 19 hours

Current Status

Altitude 481.2 km
Velocity 7.62 km/s
Sub-Earth Point -20.39°S, 176.69°W
Launch Date Apr 7, 2024
Age 1.6 years
Type internet

Technical Details

Classification Payload
Mass 730.00 kg
Dry Mass 700.00 kg
Total Mass 730.00 kg
Length 0.30 m
Diameter 4.10 m
Span 29.00 m
Shape Box + pan
Manufacturer SPXS
Bus Type Starlink V2M
Phase Status In Orbit
Owner/State SPXS/US

Large Constellations

Loading constellations...